ORBCOMM FM118 [+] (41183 NORAD) Tracking and Keplerian Element Data

This shows tracking and keplerian element data for the satellite.

Feedback or suggestion? Click here.




ElementValue
Catalog41183
NameORBCOMM FM118 [+]
Epoch Orbit30647
Epoch Day270.13217089
Epoch Year2021
RAAN203.7841
Inclination47.0035
Eccentricity6.43E-05
Argument of Perigee18.6074
Mean Anonmoly341.4834
Mean Motion14.54893168
Decay Rate9.6E-07
L11 41183U 15081E 21270.13217089 .00000096 00000-0 60250-4 0 9997
L22 41183 47.0035 203.7841 0000643 18.6074 341.4834 14.54893168306478

Live tracking and technical data element details for ORBCOMM FM118 [+] (NORAD 41183). ORBCOMM FM118 [+] can be tracked NOW for your location showing map with azimuth and elevation plus other details from your city location.

Track the satellite on the map from your city or location and see movement details for azimuth, elevation, latitude, longitude, range, height, and movement on the map or in text.







IsCatalogInMostPopularTable: catalog: 41183, numindb: 527
Update: records affected: 1



GetName: 41183 ORBCOMM FM118 [+]

Hit Count: updated at: Tue, 28 Sep 2021 16:11:44 GMT